This demonstration page uses our WeatherBlox Daily Observations layout. Learn more.

Left ArrowRight Arrow

Hourly Observations for July 4, 2022

Temp ( °F °C ) Dew Point ( °F °C ) Humidity (%) Winds ( mph kmh ) Pressure ( in mb ) Visibility ( mi km ) Precip ( " mm )
12:23 am 00:23 Cloudy with Nearby Thunderstorms 73 23 72 22 94 94 E 9 15 29.83 1010 10 16 0.00 0.00
12:35 am 00:35 Cloudy with Light Rain 73 23 72 22 94 94 NE 13 20 29.82 1010 10 16 0.00 0.00
12:56 am 00:56 Cloudy 72 22.2 71 21.7 97 97 E 10 17 29.85 1011 10 16 0.08 2.03
1:56 am 01:56 Partly Cloudy 74 23.3 73 22.8 97 97 ESE 10 17 29.81 1010 10 16 0.00 0.00
2:56 am 02:56 Mostly Cloudy 75 23.9 72 22.2 90 90 SSE 10 17 29.80 1009 10 16 0.00 0.00
3:56 am 03:56 Clear 74 23.3 70 21.1 88 88 S 14 22 29.76 1008 10 16 0.00 0.00
4:56 am 04:56 Mostly Clear 74 23.3 69 20.6 85 85 S 9 15 29.77 1008 10 16 0.00 0.00
5:56 am 05:56 Clear 74 23.3 67 19.4 79 79 S 12 19 29.77 1008 10 16 0.00 0.00
6:56 am 06:56 Partly Cloudy 73 22.8 67 19.4 81 81 S 12 19 29.77 1008 10 16 0.00 0.00
7:56 am 07:56 Sunny 74 23.3 66 18.9 76 76 S 14 22 29.77 1008 10 16 0.00 0.00
8:56 am 08:56 Sunny 79 26.1 68 20 69 69 SSW 17 28 29.78 1008 10 16 0.00 0.00
9:56 am 09:56 Sunny 81 27.2 67 19.4 62 62 SSW 18 30 29.77 1008 10 16 0.00 0.00
10:56 am 10:56 Sunny 81 27.2 68 20 65 65 SSW 15 24 29.78 1009 10 16 0.00 0.00
11:56 am 11:56 Sunny 85 29.4 70 21.1 61 61 SSW 15 24 29.79 1009 10 16 0.00 0.00
12:56 pm 12:56 Sunny 88 31.1 68 20 52 52 SW 13 20 29.79 1009 10 16 0.00 0.00
1:56 pm 13:56 Sunny 91 32.8 70 21.1 50 50 SSW 12 19 29.77 1008 10 16 0.00 0.00
2:56 pm 14:56 Sunny 93 33.9 68 20 44 44 SW 12 19 29.77 1008 10 16 0.00 0.00
3:56 pm 15:56 Sunny 94 34.4 69 20.6 44 44 SW 7 11 29.76 1008 10 16 0.00 0.00
4:56 pm 16:56 Sunny 95 35 70 21.1 44 44 SSE 5 7 29.75 1007 10 16 0.00 0.00
5:56 pm 17:56 Sunny 95 35 72 22.2 47 47 ENE 3 6 29.74 1007 10 16 0.00 0.00
6:56 pm 18:56 Sunny 93 33.9 78 25.6 62 62 NE 6 9 29.72 1007 10 16 0.00 0.00
7:56 pm 19:56 Sunny 90 32.2 72 22.2 56 56 SE 9 15 29.73 1007 10 16 0.00 0.00
8:56 pm 20:56 Sunny 86 30 69 20.6 57 57 SSE 14 22 29.74 1007 10 16 0.00 0.00
9:56 pm 21:56 Clear 84 28.9 67 19.4 57 57 SSE 10 17 29.75 1007 10 16 0.00 0.00
10:56 pm 22:56 Clear 82 27.8 67 19.4 60 60 SSE 13 20 29.77 1008 10 16 0.00 0.00
11:56 pm 23:56 Clear 83 28.3 67 19.4 59 59 S 14 22 29.78 1009 10 16 0.00 0.00

Powered by AerisWeather